Regional Weather Roundup
Issued by NWS

Home | Current Version | Previous Version | Graphics & Text | Print | Product List | Glossary On
Versions: 1 2 3 4 5 6 7 8 9 10 11 12 13 14 15 16 17 18 19 20 21 22 23 24 25 26 27 28 29 30 31 32 33 34 35 36 37 38 39 40 41 42 43 44 45 46 47 48 49 50
000
ASUS43 KDMX 020008
RWRIA

WEATHER ROUNDUP FOR IOWA
NATIONAL WEATHER SERVICE DES MOINES IA
700 PM CDT SUN MAY 01 2016

NOTE: "FAIR" INDICATES FEW OR NO CLOUDS BELOW 12,000 FEET WITH NO
SIGNIFICANT WEATHER AND/OR OBSTRUCTIONS TO VISIBILITY.

* - THESE STATIONS ARE NOT NWS STATIONS...THUS NOT UNDER NWS
QUALITY CONTROL.  THEY ALSO DO NOT REPORT WEATHER SUCH
AS PRECIPITATION OR FOG.

IAZ001>003-012>014-020>022-031>034-043>046-020100-
   NORTHWEST IOWA

CITY           SKY/WX    TMP DP  RH WIND       PRES   REMARKS
CARROLL *      CLOUDY    50  46  87 N10       30.08F
CHEROKEE *     PTSUNNY   52  43  73 N7        30.11F
DENISON *      CLOUDY    50  45  81 NE10      30.07F
LE MARS *      CLOUDY    54  41  62 N9        30.13F
ORANGE CITY *  PTSUNNY   54  41  62 N8        30.12F
SHELDON *      CLOUDY    54  39  58 N8        30.11F
SIOUX CITY     CLOUDY    55  40  56 NE14      30.13S
6HR MIN TEMP:  47; 6HR MAX TEMP:  57; 6HR PCP:  0.03;

SPENCER        CLOUDY    54  39  57 N10       30.11F
6HR MIN TEMP:  47; 6HR MAX TEMP:  56;

STORM LAKE *   MOSUNNY   52  41  66 N10       30.10F
$$

IAZ055>058-069>071-079>083-090>094-020100-
   SOUTHWEST IOWA

CITY           SKY/WX    TMP DP  RH WIND       PRES   REMARKS
ATLANTIC *     CLOUDY    48  43  81 N10       30.10R
AUDUBON *      CLOUDY    48  45  87 N7        30.10R
CLARINDA *       N/A    N/A N/A N/A MISG        N/A
COUNCIL BLFS * CLOUDY    48  45  87 CALM      30.12R
CRESTON *      CLOUDY    48  43  81 N12       30.09R
HARLAN  *      CLOUDY    50  45  81 NE10      30.13S
LAMONI         CLOUDY    47  44  90 N7        30.06F
6HR MIN TEMP:  47; 6HR MAX TEMP:  50; 6HR PCP:  0.01;

RED OAK *      CLOUDY    50  46  87 N9        30.11R
SHENANDOAH *   CLOUDY    50  45  81 N12       30.13R
$$

IAZ047>049-059>061-072>074-084-020100-
   CENTRAL IOWA

CITY           SKY/WX    TMP DP  RH WIND       PRES   REMARKS
AMES           CLOUDY    49  45  86 N13       30.06F
6HR MIN TEMP:  46; 6HR MAX TEMP:  50; 6HR PCP:  0.10;

ANKENY *       CLOUDY    48  48 100 N8        30.06S
BOONE *        PTSUNNY   48  46  93 N10       30.06F
CHARITON *     CLOUDY    48  46  93 N9        30.06R
DES MOINES     CLOUDY    50  44  80 NE10      30.06S
6HR MIN TEMP:  47; 6HR MAX TEMP:  51; 6HR PCP:  0.04;

GRINNELL*      CLOUDY    46  46 100 N13G21    30.04F
KNOXVILLE *    CLOUDY    48  45  87 N9G15     30.04R
MARSHALLTOWN   CLOUDY    49  46  90 N15       30.05F
6HR MIN TEMP:  46; 6HR MAX TEMP:  50; 6HR PCP:  0.21;

NEWTON *       CLOUDY    48  48 100 N10G17    30.05R
PELLA *        PTSUNNY   48  46  91 N6        30.06R
$$

IAZ004>006-015-016-023>025-035-036-020100-
   NORTH CENTRAL IOWA

CITY           SKY/WX    TMP DP  RH WIND       PRES   REMARKS
ALGONA *       CLOUDY    55  45  67 N5        30.10S
CLARION *      MOSUNNY   54  46  76 NE14      30.08F
ESTHERVILLE    CLOUDY    53  43  68 N10       30.10F
6HR MIN TEMP:  49; 6HR MAX TEMP:  57;

FORT DODGE *   CLOUDY    52  43  71 N7        30.09S
MASON CITY     CLOUDY    52  47  83 SE7       30.10S
6HR MIN TEMP:  48; 6HR MAX TEMP:  53; 6HR PCP: TRACE;

FOREST CITY *  CLOUDY    52  43  71 CALM      30.09F
WEBSTER CITY * PTSUNNY   52  45  76 NE10G18   30.06F
IOWA FALLS *   LGT RAIN  50  46  87 N12       30.08F
$$

IAZ007>011-017>019-026>030-037>042-050>054-066-020100-
   NORTHEAST IOWA

CITY           SKY/WX    TMP DP  RH WIND       PRES   REMARKS
CEDAR RAPIDS   LGT RAIN  48  48 100 N13       30.02S FOG
6HR MIN TEMP:  47; 6HR MAX TEMP:  49; 6HR PCP:  0.19;

CHARLES CITY * SUNNY     50  50 100 NE7       30.10S
CLINTON *      LGT RAIN  49  48  97 NW10      30.01R FOG
DECORAH *      CLOUDY    48  48 100 CALM      30.09R FOG
DUBUQUE        CLOUDY    48  47  96 N13       30.02F FOG
6HR MIN TEMP:  48; 6HR MAX TEMP:  50; 6HR PCP:  0.12;

MONTICELLO *   LGT RAIN  48  46  93 N9        30.02S
OELWEIN *      CLOUDY    48  48 100 N12G17    30.08S FOG
WATERLOO       CLOUDY    48  45  89 N13       30.07F
6HR MIN TEMP:  47; 6HR MAX TEMP:  49; 6HR PCP:  0.16;

$$

IAZ064-065-067-068-078-020100-
   EAST CENTRAL IOWA

CITY           SKY/WX    TMP DP  RH WIND       PRES   REMARKS
DAVENPORT      RAIN      48  47  96 N6        30.01F FOG
6HR MIN TEMP:  48; 6HR MAX TEMP:  50; 6HR PCP:  0.47;

IOWA CITY      LGT RAIN  49  47  93 N12       30.02F
6HR MIN TEMP:  48; 6HR MAX TEMP:  50; 6HR PCP:  0.13;

MT. PLEASANT * CLOUDY    52  51  98 N8        30.00S
MUSCATINE *    CLOUDY    50  48  93 N8        30.01S
QUAD CITIES    LGT RAIN  50  47  89 N3        30.00R FOG
6HR MIN TEMP:  50; 6HR MAX TEMP:  52; 6HR PCP:  0.32;

$$

IAZ062-063-075>077-085>089-095>099-020100-
   SOUTHEAST IOWA

CITY           SKY/WX    TMP DP  RH WIND       PRES   REMARKS
BURLINGTON     CLOUDY    50  49  96 N9        29.98F
6HR MIN TEMP:  50; 6HR MAX TEMP:  51; 6HR PCP:  0.02;

FAIRFIELD *    CLOUDY    50  46  87 N10       30.02R
FORT MADISON * CLOUDY    50  48  93 N7        30.01R
KEOKUK *       CLOUDY    52  50  93 N7        29.99R
OSKALOOSA *    CLOUDY    47  46  97 N9        30.04R
OTTUMWA        CLOUDY    48  46  93 N8        30.04R
6HR MIN TEMP:  47; 6HR MAX TEMP:  49; 6HR PCP:  0.12;

WASHINGTON *   CLOUDY    48  48 100 N10       30.02S
$$

ABBREVIATIONS USED IN REMARKS
   TC - TEMPERATURES IN CELSIUS
  WCI - WIND CHILL INDEX
   HX - HEAT INDEX
  VSB - VISIBILITY
$$





USA.gov is the U.S. government's official web portal to all federal, state and local government web resources and services.